Leadville, CO

11:28 AM MST on February 10, 2016 (GMT -0700)
Lake County

Weather History for KLXV - February, 2014

Change the Weather History Date:

Wednesday, February 5, 2014

  Actual Average Record
Temperature  
Mean Temperature 4 °F -  
Max Temperature 15 °F 30 °F 42 °F (1984)
Min Temperature -8 °F 4 °F -20 °F (1979)
Degree Days  
Heating Degree Days 61 48  
Month to date heating degree days 293 240  
Since 1 July heating degree days 6532 6637  
Cooling Degree Days 0 0  
Month to date cooling degree days 0 0  
Year to date cooling degree days 0 0  
Moisture  
Dew Point -7 °F    
Average Humidity 63    
Maximum Humidity 79    
Minimum Humidity 46    
Precipitation  
Precipitation T in 0.02 in 0.31 in (2011)
Month to date precipitation 0.07 0.11  
Year to date precipitation 3.03 0.73  
Sea Level Pressure  
Sea Level Pressure 29.98 in    
Wind  
Wind Speed 8 mph (North)    
Max Wind Speed 18 mph    
Max Gust Speed 23 mph    
Visibility 9 miles    
Events      
T = Trace of Precipitation, MM = Missing Value Source: NWS Daily Summary

Daily Weather History Graph

Daily Weather History Graph

Search for Another Location

Airport or City:

Trip Planner

Search our weather history database for the weather conditions in past years. The results will help you decide how hot, cold, wet, or windy it might be!

Date:

Astronomy

Feb. 05, 2014 Rise Set
Actual Time 7:08 AM MST 5:30 PM MST
Civil Twilight 6:40 AM MST 5:58 PM MST
Nautical Twilight 6:08 AM MST 6:30 PM MST
Astronomical Twilight 5:37 AM MST 7:02 PM MST
Moon 10:27 AM MST (2/5) No Moon Set
Length of Visible Light 11h 18m
Length of Day
10h 22m
Waxing Crescent, 40% of the Moon is Illuminated
Feb 5
Waxing Crescent
Feb 6
First Quarter
Feb 14
Full
Feb 22
Last Quarter
Mar 1
New

Hourly Weather History & Observations

Time (MST) Temp. Windchill Dew Point Humidity Pressure Visibility Wind Dir Wind Speed Gust Speed Precip Events Conditions
12:53 AM -4.0 °F -14.6 °F -9.0 °F 79% 30.00 in 10.0 mi NNE 4.6 mph - N/A   Scattered Clouds
1:28 AM -4.0 °F -16.3 °F -9.0 °F 79% 29.83 in 7.0 mi NE 5.8 mph - N/A   Mostly Cloudy
1:45 AM -2.9 °F -13.3 °F -9.0 °F 75% 29.83 in 9.0 mi North 4.6 mph - N/A   Overcast
1:53 AM -2.0 °F -12.2 °F -8.0 °F 76% 29.99 in 4.0 mi North 4.6 mph - N/A   Haze
2:53 AM -2.9 °F - -7.1 °F 82% 30.00 in 4.0 mi Calm Calm - 0.00 in   Overcast
3:53 AM -4.0 °F -16.3 °F -9.9 °F 76% 29.99 in 10.0 mi NE 5.8 mph - N/A   Scattered Clouds
4:53 AM -6.0 °F -20.1 °F -11.0 °F 79% 30.06 in 10.0 mi NNE 6.9 mph - N/A   Clear
5:53 AM -5.1 °F -21.5 °F -11.0 °F 76% 30.04 in 10.0 mi NE 9.2 mph - N/A   Clear
6:53 AM -6.0 °F -21.5 °F -11.9 °F 75% 30.06 in 10.0 mi NE 8.1 mph - N/A   Clear
7:53 AM -2.9 °F -17.7 °F -11.0 °F 68% 30.06 in 10.0 mi North 8.1 mph - N/A   Clear
8:53 AM 3.9 °F -11.3 °F -8.0 °F 58% 30.03 in 10.0 mi NW 10.4 mph - N/A   Clear
9:53 AM 7.0 °F -6.6 °F -7.1 °F 53% 30.04 in 10.0 mi NNW 9.2 mph - N/A   Clear
10:53 AM 10.0 °F -0.9 °F -5.1 °F 51% 30.02 in 10.0 mi NNW 6.9 mph 17.3 mph N/A   Clear
11:53 AM 12.9 °F 1.6 °F -5.1 °F 45% 29.99 in 10.0 mi NNW 8.1 mph - N/A   Clear
12:53 PM 12.9 °F -0.2 °F -4.0 °F 47% 29.96 in 10.0 mi NW 10.4 mph - N/A   Clear
1:53 PM 12.9 °F -3.4 °F -2.9 °F 49% 29.93 in 10.0 mi North 16.1 mph - N/A   Overcast
2:53 PM 14.0 °F -0.2 °F -4.0 °F 45% 29.94 in 10.0 mi North 12.7 mph 18.4 mph N/A   Overcast
3:53 PM 14.0 °F 2.0 °F -2.9 °F 47% 29.96 in 10.0 mi North 9.2 mph - N/A   Overcast
4:53 PM 9.0 °F -5.9 °F -4.0 °F 56% 30.01 in 10.0 mi North 11.5 mph - N/A   Overcast
5:53 PM 6.1 °F -4.3 °F -5.1 °F 60% 30.01 in 10.0 mi North 5.8 mph - N/A   Overcast
6:53 PM 3.9 °F -10.4 °F -6.0 °F 64% 30.06 in 10.0 mi NNE 9.2 mph - N/A   Overcast
7:53 PM 7.0 °F -3.3 °F -7.1 °F 53% 30.02 in 10.0 mi Variable 5.8 mph - N/A   Overcast
8:53 PM 6.1 °F -6.8 °F -2.9 °F 67% 29.98 in 10.0 mi North 8.1 mph - N/A   Overcast
9:53 PM 5.0 °F -6.9 °F -4.0 °F 66% 29.95 in 10.0 mi NNE 6.9 mph - N/A   Overcast
10:53 PM 3.0 °F -9.3 °F -6.0 °F 66% 29.93 in 10.0 mi NE 6.9 mph - N/A   Overcast
11:53 PM 6.1 °F -4.3 °F -6.0 °F 58% 29.87 in 10.0 mi NE 5.8 mph - N/A   Overcast